Location: Unspecified
(0.0000°N, 0.0000°E)
Time: 13:27:14
(UTC+00:00)

Envisat - Pass Details

Date: 28 November 2021
Orbit: 764 x 766 km, 98.2° (Epoch: 07 December)

Event Time Altitude Azimuth Distance (km) Brightness Sun altitude
Rises 04:27:34 0° 16° (NNE) 3,212 6.2 -18.7°
Reaches altitude 10° 04:29:52 10° 18° (NNE) 2,290 5.4 -18.1°
Maximum altitude 04:34:53 72° 102° (ESE) 801 3.2 -17.0°
Drops below altitude 10° 04:39:57 10° 186° (S) 2,300 5.7 -15.8°
Sets 04:42:15 0° 188° (S) 3,229 6.4 -15.3°
